NORTHEAST SUFFOLK  -  Rip Current Statement Rip Current Statement        NORTHERN NASSAU  -  Rip Current Statement Rip Current Statement        NORTHERN QUEENS  -  Rip Current Statement Rip Current Statement     Air Quality Alert Air Quality Alert        NORTHWEST SUFFOLK  -  Rip Current Statement Rip Current Statement        SOUTHEAST SUFFOLK  -  Rip Current Statement Rip Current Statement        SOUTHERN NASSAU  -  Rip Current Statement Rip Current Statement        SOUTHERN QUEENS  -  Rip Current Statement Rip Current Statement     Air Quality Alert Air Quality Alert        SOUTHWEST SUFFOLK  -  Rip Current Statement Rip Current Statement      

Active alerts

Northern Queens
  Details for Northern Queens Rip Current Statement  +1 additional alert
Southern Queens
  Details for Southern Queens Rip Current Statement  +1 additional alert
Northern Nassau
  Details for Northern Nassau Rip Current Statement
Southern Nassau
  Details for Southern Nassau Rip Current Statement
Northwest Suffolk
  Details for Northwest Suffolk Rip Current Statement
Southwest Suffolk
  Details for Southwest Suffolk Rip Current Statement
Northeast Suffolk
  Details for Northeast Suffolk Rip Current Statement
Southeast Suffolk
  Details for Southeast Suffolk Rip Current Statement


WXM80 ListenWXM80 Stop

You find our weather info also at:

UK Metoffice

WeatherCloud

Weather Underground

Northeastern Weather Network

AWEKAS

Citizen Weather Observer Program (CWOP)

HAMweather, WeatherForYou, PWS Weather


Weather Underground History page Text

Daily Summary for July 6, 2016 Units:  English    Metric   Both
« Previous Day
Next Day »
Daily Weekly Monthly Yearly Custom
  High: Low: Average:
Temperature: 95.3 °F 71.5 °F 82.8 °F
Dew Point: 74.9 °F 66.9 °F 71 °F
Humidity: 93 % 43 % 70 %
Wind Speed: 5.1 mph 0.0 mph 1.2 mph
Wind Gust: 13.0 mph - -
Wind:- - SSW
Pressure: 29.85 in 29.77 in -
Precipitation: 0.00 in    
Historical Graphs
 
 
Tabular Data for July 6, 2016
Time Temperature Dew Point Pressure Wind Wind Speed Wind Gust Humidity Rainfall Rate (Hourly)
00:03 77.7 °F 69.9 °F 29.79 in SSW 0.1 mph 1.2 mph 77 % 0.00 in
00:08 77.8 °F 70.4 °F 29.79 in WSW 0.5 mph 2.0 mph 78 % 0.00 in
00:13 77.8 °F 70.4 °F 29.79 in SW 0.1 mph 1.2 mph 78 % 0.00 in
00:18 77.8 °F 70.4 °F 29.79 in WSW 0.8 mph 2.3 mph 78 % 0.00 in
00:23 77.8 °F 70.4 °F 29.80 in SW 1.2 mph 1.2 mph 78 % 0.00 in
00:29 77.9 °F 70.5 °F 29.79 in SW 0.3 mph 1.2 mph 78 % 0.00 in
00:34 77.9 °F 70.5 °F 29.80 in Calm     78 % 0.00 in
00:39 77.8 °F 70.4 °F 29.80 in SW 0.4 mph 3.5 mph 78 % 0.00 in
00:44 77.8 °F 70.4 °F 29.80 in SW 1.5 mph 3.5 mph 78 % 0.00 in
00:49 77.8 °F 70.4 °F 29.80 in Calm   1.2 mph 78 % 0.00 in
00:54 77.7 °F 70.3 °F 29.80 in Calm   1.2 mph 78 % 0.00 in
00:59 77.7 °F 70.3 °F 29.81 in SW 2.2 mph 3.5 mph 78 % 0.00 in
01:04 77.6 °F 70.2 °F 29.81 in SW 0.3 mph 3.5 mph 78 % 0.00 in
01:09 77.6 °F 70.2 °F 29.81 in SW 1.5 mph 3.5 mph 78 % 0.00 in
01:14 77.6 °F 70.2 °F 29.80 in SW 1.0 mph 2.3 mph 78 % 0.00 in
01:20 77.6 °F 70.2 °F 29.80 in SW 0.4 mph 2.0 mph 78 % 0.00 in
01:25 77.6 °F 70.2 °F 29.81 in SW 0.6 mph 2.3 mph 78 % 0.00 in
01:30 77.5 °F 70.1 °F 29.80 in SW 0.7 mph 2.3 mph 78 % 0.00 in
01:35 77.4 °F 70.0 °F 29.80 in SSW 1.1 mph 2.3 mph 78 % 0.00 in
01:40 77.4 °F 70.0 °F 29.80 in SSW 1.4 mph 3.5 mph 78 % 0.00 in
01:45 77.3 °F 70.3 °F 29.80 in SSW 1.7 mph 3.5 mph 79 % 0.00 in
01:50 77.3 °F 70.3 °F 29.80 in SW 0.7 mph 3.0 mph 79 % 0.00 in
01:55 77.2 °F 70.2 °F 29.80 in SW 0.7 mph 2.3 mph 79 % 0.00 in
02:00 77.1 °F 70.1 °F 29.80 in Calm   1.2 mph 79 % 0.00 in
02:05 77.1 °F 70.1 °F 29.80 in Calm   2.3 mph 79 % 0.00 in
02:11 77.0 °F 70.4 °F 29.80 in Calm   2.0 mph 80 % 0.00 in
02:16 76.9 °F 70.3 °F 29.80 in WSW 1.0 mph 4.0 mph 80 % 0.00 in
02:21 76.8 °F 70.2 °F 29.79 in Calm   1.0 mph 80 % 0.00 in
02:26 76.7 °F 70.1 °F 29.79 in WSW 1.0 mph 3.0 mph 80 % 0.00 in
02:31 76.6 °F 70.3 °F 29.79 in WSW 1.0 mph 4.0 mph 81 % 0.00 in
02:36 76.4 °F 70.1 °F 29.79 in Calm   2.0 mph 81 % 0.00 in
02:41 76.3 °F 70.0 °F 29.79 in SW 1.0 mph 4.0 mph 81 % 0.00 in
02:46 76.1 °F 69.8 °F 29.79 in WSW 1.0 mph 4.0 mph 81 % 0.00 in
02:50 76.0 °F 70.1 °F 29.79 in WSW 1.0 mph 3.0 mph 82 % 0.00 in
02:56 75.8 °F 69.9 °F 29.79 in Calm   2.0 mph 82 % 0.00 in
03:01 75.7 °F 70.2 °F 29.79 in Calm   1.0 mph 83 % 0.00 in
03:06 75.6 °F 70.1 °F 29.79 in West 0.3 mph 2.3 mph 83 % 0.00 in
03:11 75.4 °F 69.9 °F 29.79 in Calm   1.2 mph 83 % 0.00 in
03:16 75.3 °F 69.8 °F 29.79 in West 0.2 mph 1.2 mph 83 % 0.00 in
03:21 75.1 °F 69.6 °F 29.78 in West 0.1 mph 1.2 mph 83 % 0.00 in
03:26 75.0 °F 69.5 °F 29.79 in West 0.3 mph 1.2 mph 83 % 0.00 in
03:31 74.9 °F 69.7 °F 29.78 in West 0.1 mph 1.2 mph 84 % 0.00 in
03:36 74.8 °F 69.6 °F 29.79 in West 0.5 mph 1.2 mph 84 % 0.00 in
03:41 74.7 °F 69.5 °F 29.78 in Calm   1.2 mph 84 % 0.00 in
03:47 74.6 °F 69.4 °F 29.78 in Calm   1.2 mph 84 % 0.00 in
03:52 74.6 °F 69.8 °F 29.78 in West 0.1 mph 1.2 mph 85 % 0.00 in
03:57 74.5 °F 69.7 °F 29.78 in West 0.1 mph 1.2 mph 85 % 0.00 in
04:02 74.4 °F 69.6 °F 29.79 in Calm   2.3 mph 85 % 0.00 in
04:07 74.4 °F 69.6 °F 29.79 in WSW 1.9 mph 3.0 mph 85 % 0.00 in
04:12 74.3 °F 69.5 °F 29.79 in Calm   1.2 mph 85 % 0.00 in
04:17 74.2 °F 69.4 °F 29.79 in Calm   1.2 mph 85 % 0.00 in
04:22 74.2 °F 69.4 °F 29.79 in Calm     85 % 0.00 in
04:27 74.1 °F 69.3 °F 29.80 in Calm   1.0 mph 85 % 0.00 in
04:32 74.0 °F 69.5 °F 29.79 in WSW 0.3 mph 1.2 mph 86 % 0.00 in
04:38 73.9 °F 69.4 °F 29.80 in WSW 0.1 mph 1.2 mph 86 % 0.00 in
04:43 73.8 °F 69.3 °F 29.80 in Calm     86 % 0.00 in
04:48 73.6 °F 69.2 °F 29.79 in Calm     86 % 0.00 in
04:53 73.5 °F 69.1 °F 29.80 in Calm     86 % 0.00 in
04:58 73.3 °F 69.2 °F 29.80 in Calm   1.0 mph 87 % 0.00 in
05:03 73.1 °F 69.0 °F 29.80 in WSW 0.5 mph 1.2 mph 87 % 0.00 in
05:08 73.0 °F 68.9 °F 29.80 in Calm     87 % 0.00 in
05:13 72.8 °F 69.0 °F 29.81 in Calm     88 % 0.00 in
05:18 72.7 °F 68.9 °F 29.81 in Calm     88 % 0.00 in
05:23 72.6 °F 68.8 °F 29.81 in Calm     88 % 0.00 in
05:29 72.4 °F 68.6 °F 29.81 in Calm     88 % 0.00 in
05:34 72.3 °F 68.5 °F 29.82 in Calm     88 % 0.00 in
05:39 72.1 °F 68.3 °F 29.81 in Calm     88 % 0.00 in
05:44 72.1 °F 68.7 °F 29.82 in WSW 0.1 mph 1.2 mph 89 % 0.00 in
05:49 71.9 °F 68.5 °F 29.82 in Calm     89 % 0.00 in
05:54 71.9 °F 68.8 °F 29.82 in Calm     90 % 0.00 in
05:59 71.8 °F 68.7 °F 29.83 in WSW 0.6 mph 1.2 mph 90 % 0.00 in
06:04 71.7 °F 68.6 °F 29.83 in WSW 0.9 mph 1.2 mph 90 % 0.00 in
06:09 71.6 °F 68.5 °F 29.83 in Calm     90 % 0.00 in
06:14 71.5 °F 68.4 °F 29.83 in Calm     90 % 0.00 in
06:20 71.5 °F 68.7 °F 29.83 in Calm     91 % 0.00 in
06:25 71.5 °F 68.7 °F 29.83 in Calm     91 % 0.00 in
06:30 71.6 °F 69.2 °F 29.84 in Calm     92 % 0.00 in
06:35 71.6 °F 69.2 °F 29.84 in Calm   1.0 mph 92 % 0.00 in
06:40 71.8 °F 69.7 °F 29.84 in WSW 0.1 mph 1.2 mph 93 % 0.00 in
06:45 72.0 °F 69.9 °F 29.84 in WSW 0.1 mph 1.2 mph 93 % 0.00 in
06:50 72.3 °F 70.2 °F 29.84 in SW 1.5 mph 3.5 mph 93 % 0.00 in
06:55 72.5 °F 70.4 °F 29.85 in WSW 0.9 mph 3.5 mph 93 % 0.00 in
07:00 72.8 °F 70.7 °F 29.85 in SW 1.7 mph 3.5 mph 93 % 0.00 in
07:05 73.0 °F 70.5 °F 29.85 in West 1.5 mph 1.5 mph 92 % 0.00 in
07:11 73.3 °F 70.5 °F 29.85 in WSW 1.0 mph 3.0 mph 91 % 0.00 in
07:16 73.7 °F 70.9 °F 29.85 in Calm   3.0 mph 91 % 0.00 in
07:21 74.1 °F 71.0 °F 29.85 in SW 1.0 mph 3.0 mph 90 % 0.00 in
07:26 74.6 °F 71.2 °F 29.85 in Calm   1.0 mph 89 % 0.00 in
07:31 75.2 °F 71.4 °F 29.85 in SW 1.0 mph 3.5 mph 88 % 0.00 in
07:36 75.6 °F 71.5 °F 29.85 in SW 1.0 mph 3.0 mph 87 % 0.00 in
07:41 76.0 °F 71.5 °F 29.85 in Calm   3.0 mph 86 % 0.00 in
07:46 76.3 °F 71.8 °F 29.85 in West 0.6 mph 2.0 mph 86 % 0.00 in
07:51 76.5 °F 71.7 °F 29.84 in Calm     85 % 0.00 in
07:56 76.7 °F 71.5 °F 29.84 in Calm   2.0 mph 84 % 0.00 in
08:01 76.9 °F 71.7 °F 29.84 in West 0.3 mph 1.0 mph 84 % 0.00 in
08:06 77.0 °F 71.8 °F 29.85 in Calm   2.0 mph 84 % 0.00 in
08:11 77.2 °F 71.9 °F 29.85 in West 2.0 mph 3.0 mph 84 % 0.00 in
08:16 77.3 °F 71.7 °F 29.85 in West 0.9 mph 3.0 mph 83 % 0.00 in
08:21 77.5 °F 71.5 °F 29.85 in WSW 3.0 mph 5.0 mph 82 % 0.00 in
08:26 77.6 °F 71.7 °F 29.85 in Calm   4.0 mph 82 % 0.00 in
08:31 77.8 °F 71.5 °F 29.85 in SW 1.0 mph 4.0 mph 81 % 0.00 in
08:36 78.0 °F 71.7 °F 29.84 in SW 1.0 mph 2.0 mph 81 % 0.00 in
08:41 78.2 °F 71.5 °F 29.84 in SW 1.0 mph 4.0 mph 80 % 0.00 in
08:46 78.5 °F 71.4 °F 29.84 in WSW 1.4 mph 2.3 mph 79 % 0.00 in
08:51 78.8 °F 71.0 °F 29.84 in SW 1.0 mph 4.0 mph 77 % 0.00 in
08:56 79.0 °F 71.2 °F 29.84 in SW 1.0 mph 3.0 mph 77 % 0.00 in
09:01 79.3 °F 71.8 °F 29.84 in West 2.5 mph 3.0 mph 78 % 0.00 in
09:06 79.4 °F 72.0 °F 29.84 in West 1.0 mph 5.0 mph 78 % 0.00 in
09:11 79.6 °F 72.1 °F 29.84 in West 1.0 mph 4.0 mph 78 % 0.00 in
09:16 79.8 °F 70.8 °F 29.84 in West 2.6 mph 3.5 mph 74 % 0.00 in
09:21 80.0 °F 70.9 °F 29.83 in WSW 1.0 mph 4.0 mph 74 % 0.00 in
09:26 80.1 °F 71.5 °F 29.83 in West 2.0 mph 5.0 mph 75 % 0.00 in
09:31 80.3 °F 71.3 °F 29.83 in WNW 2.0 mph 4.0 mph 74 % 0.00 in
09:36 80.5 °F 71.9 °F 29.83 in Calm   3.0 mph 75 % 0.00 in
09:41 80.8 °F 71.3 °F 29.83 in WNW 1.0 mph 3.0 mph 73 % 0.00 in
09:46 81.1 °F 71.6 °F 29.83 in WNW 1.0 mph 4.0 mph 73 % 0.00 in
09:51 81.5 °F 71.6 °F 29.83 in WNW 1.0 mph 3.0 mph 72 % 0.00 in
09:56 82.1 °F 73.0 °F 29.84 in NW 2.0 mph 4.0 mph 74 % 0.00 in
10:01 83.0 °F 74.3 °F 29.84 in NW 0.6 mph 3.5 mph 75 % 0.00 in
10:06 83.6 °F 74.9 °F 29.84 in NW 1.0 mph 3.0 mph 75 % 0.00 in
10:11 84.5 °F 73.6 °F 29.84 in NW 1.0 mph 3.0 mph 70 % 0.00 in
10:16 85.3 °F 74.4 °F 29.84 in WNW 1.0 mph 3.0 mph 70 % 0.00 in
10:20 86.3 °F 74.9 °F 29.84 in NW 2.8 mph 3.5 mph 69 % 0.00 in
10:26 87.0 °F 73.4 °F 29.83 in WNW 3.0 mph 5.0 mph 64 % 0.00 in
10:31 87.8 °F 73.6 °F 29.84 in West 1.0 mph 4.0 mph 63 % 0.00 in
10:36 88.3 °F 72.2 °F 29.84 in WNW 1.0 mph 4.0 mph 59 % 0.00 in
10:41 88.8 °F 72.2 °F 29.84 in WNW 1.0 mph 3.0 mph 58 % 0.00 in
10:46 89.5 °F 71.2 °F 29.84 in West 2.0 mph 4.0 mph 55 % 0.00 in
10:50 90.2 °F 72.4 °F 29.84 in WSW 3.3 mph 4.6 mph 56 % 0.00 in
10:56 90.6 °F 72.2 °F 29.84 in West 1.0 mph 5.0 mph 55 % 0.00 in
11:01 91.0 °F 70.9 °F 29.84 in West 1.4 mph 3.5 mph 52 % 0.00 in
11:06 91.3 °F 71.2 °F 29.84 in WNW 2.0 mph 5.0 mph 52 % 0.00 in
11:11 91.7 °F 72.1 °F 29.84 in NW 1.0 mph 6.0 mph 53 % 0.00 in
11:16 92.0 °F 69.5 °F 29.84 in West 3.7 mph 6.9 mph 48 % 0.00 in
11:21 92.3 °F 69.2 °F 29.84 in SW 2.8 mph 6.0 mph 47 % 0.00 in
11:26 92.5 °F 68.7 °F 29.84 in SW 4.4 mph 5.8 mph 46 % 0.00 in
11:31 92.7 °F 66.9 °F 29.84 in SW 2.2 mph 6.9 mph 43 % 0.00 in
11:36 92.9 °F 68.4 °F 29.84 in SW 2.3 mph 5.8 mph 45 % 0.00 in
11:41 93.1 °F 68.6 °F 29.84 in WNW 4.5 mph 6.9 mph 45 % 0.00 in
11:47 93.3 °F 70.7 °F 29.84 in WNW 1.6 mph 3.5 mph 48 % 0.00 in
11:52 93.6 °F 72.2 °F 29.84 in West 3.1 mph 5.0 mph 50 % 0.00 in
11:57 94.0 °F 71.3 °F 29.84 in WNW 1.0 mph 2.3 mph 48 % 0.00 in
12:02 94.3 °F 72.2 °F 29.85 in NNW 1.2 mph 2.3 mph 49 % 0.00 in
12:07 94.7 °F 73.2 °F 29.84 in NNE 2.2 mph 3.5 mph 50 % 0.00 in
12:12 94.7 °F 72.0 °F 29.84 in WNW 1.2 mph 4.0 mph 48 % 0.00 in
12:17 94.9 °F 72.1 °F 29.84 in NNE 4.4 mph 5.0 mph 48 % 0.00 in
12:22 94.7 °F 73.2 °F 29.85 in NNW 1.8 mph 3.5 mph 50 % 0.00 in
12:27 95.0 °F 71.6 °F 29.84 in North 3.2 mph 3.5 mph 47 % 0.00 in
12:33 94.9 °F 72.8 °F 29.84 in North 1.4 mph 3.5 mph 49 % 0.00 in
12:38 95.0 °F 71.0 °F 29.84 in NNE 2.1 mph 3.5 mph 46 % 0.00 in
12:43 95.1 °F 71.7 °F 29.84 in NE 3.4 mph 5.8 mph 47 % 0.00 in
12:48 95.2 °F 72.4 °F 29.84 in NNW 3.9 mph 5.8 mph 48 % 0.00 in
12:53 95.3 °F 71.9 °F 29.84 in North 3.3 mph 4.6 mph 47 % 0.00 in
12:58 95.3 °F 71.2 °F 29.84 in North 1.9 mph 4.0 mph 46 % 0.00 in
13:03 95.0 °F 72.8 °F 29.84 in North 1.6 mph 3.5 mph 49 % 0.00 in
13:08 94.6 °F 72.5 °F 29.84 in NE 2.3 mph 5.8 mph 49 % 0.00 in
13:13 94.2 °F 70.9 °F 29.84 in Calm   1.2 mph 47 % 0.00 in
13:18 94.2 °F 72.1 °F 29.83 in NNE 1.2 mph 3.5 mph 49 % 0.00 in
13:24 94.2 °F 71.5 °F 29.83 in Calm     48 % 0.00 in
13:29 94.3 °F 71.6 °F 29.83 in NNE 0.9 mph 2.3 mph 48 % 0.00 in
13:34 94.3 °F 72.2 °F 29.83 in NNE 0.9 mph 2.3 mph 49 % 0.00 in
13:39 94.3 °F 74.0 °F 29.83 in NNE 1.5 mph 3.5 mph 52 % 0.00 in
13:44 94.4 °F 73.5 °F 29.83 in NNE 0.6 mph 2.3 mph 51 % 0.00 in
13:49 94.5 °F 74.7 °F 29.83 in NNE 0.6 mph 2.3 mph 53 % 0.00 in
13:54 94.7 °F 73.2 °F 29.82 in North 3.0 mph 4.6 mph 50 % 0.00 in
13:59 94.5 °F 73.6 °F 29.83 in Calm   1.2 mph 51 % 0.00 in
14:09 94.1 °F 73.2 °F 29.82 in NE 0.5 mph 2.3 mph 51 % 0.00 in
14:15 94.2 °F 72.7 °F 29.82 in Calm   1.2 mph 50 % 0.00 in
14:20 94.2 °F 73.3 °F 29.82 in NE 0.4 mph 3.5 mph 51 % 0.00 in
14:25 94.6 °F 73.1 °F 29.82 in SW 1.4 mph 3.5 mph 50 % 0.00 in
14:30 94.6 °F 69.3 °F 29.82 in SE 3.1 mph 6.9 mph 44 % 0.00 in
14:35 94.2 °F 70.9 °F 29.81 in WSW 0.5 mph 2.3 mph 47 % 0.00 in
14:40 94.1 °F 69.5 °F 29.81 in SE 4.4 mph 6.9 mph 45 % 0.00 in
14:45 93.8 °F 69.9 °F 29.81 in SE 1.1 mph 3.5 mph 46 % 0.00 in
14:50 93.5 °F 72.1 °F 29.81 in SSW 1.2 mph 3.5 mph 50 % 0.00 in
14:55 93.7 °F 70.4 °F 29.81 in SE 0.8 mph 3.5 mph 47 % 0.00 in
15:00 93.7 °F 71.0 °F 29.81 in SSW 0.7 mph 5.8 mph 48 % 0.00 in
15:06 93.1 °F 69.9 °F 29.81 in South 2.0 mph 10.0 mph 47 % 0.00 in
15:11 92.5 °F 70.5 °F 29.81 in SSE 2.0 mph 10.0 mph 49 % 0.00 in
15:16 92.1 °F 70.2 °F 29.81 in SSE 2.0 mph 7.0 mph 49 % 0.00 in
15:21 92.2 °F 72.6 °F 29.80 in South 1.0 mph 6.0 mph 53 % 0.00 in
15:26 92.4 °F 71.1 °F 29.80 in South 2.0 mph 6.0 mph 50 % 0.00 in
15:31 92.3 °F 71.0 °F 29.80 in SSE 5.0 mph 13.0 mph 50 % 0.00 in
15:36 91.8 °F 68.7 °F 29.80 in SSE 5.0 mph 9.0 mph 47 % 0.00 in
15:41 91.6 °F 70.4 °F 29.81 in SSE 2.0 mph 7.0 mph 50 % 0.00 in
15:46 91.8 °F 69.4 °F 29.81 in South 1.0 mph 4.0 mph 48 % 0.00 in
15:51 91.9 °F 68.8 °F 29.80 in SSE 3.0 mph 8.0 mph 47 % 0.00 in
15:56 91.5 °F 68.4 °F 29.80 in SSE 3.0 mph 8.0 mph 47 % 0.00 in
16:01 91.3 °F 71.2 °F 29.79 in SE 0.7 mph 3.5 mph 52 % 0.00 in
16:06 91.5 °F 69.0 °F 29.79 in SE 4.3 mph 8.1 mph 48 % 0.00 in
16:11 91.4 °F 69.6 °F 29.79 in SSE 3.2 mph 5.8 mph 49 % 0.00 in
16:16 91.5 °F 69.0 °F 29.79 in SSE 1.2 mph 4.0 mph 48 % 0.00 in
16:21 91.6 °F 70.9 °F 29.78 in SSE 1.9 mph 3.5 mph 51 % 0.00 in
16:26 91.9 °F 69.4 °F 29.78 in SW 0.8 mph 2.3 mph 48 % 0.00 in
16:31 92.0 °F 69.5 °F 29.78 in SSE 4.3 mph 4.6 mph 48 % 0.00 in
16:36 91.7 °F 69.8 °F 29.78 in SE 1.1 mph 3.5 mph 49 % 0.00 in
16:41 91.8 °F 70.5 °F 29.78 in SSE 0.2 mph 2.0 mph 50 % 0.00 in
16:46 92.0 °F 71.9 °F 29.78 in SSE 2.8 mph 4.6 mph 52 % 0.00 in
16:52 92.0 °F 70.7 °F 29.78 in SE 0.3 mph 6.9 mph 50 % 0.00 in
16:57 92.1 °F 71.9 °F 29.78 in SW 0.9 mph 2.3 mph 52 % 0.00 in
17:02 92.2 °F 70.9 °F 29.78 in SSE 1.1 mph 3.5 mph 50 % 0.00 in
17:07 92.2 °F 70.9 °F 29.78 in Calm   1.2 mph 50 % 0.00 in
17:12 92.2 °F 70.3 °F 29.78 in SSE 5.1 mph 9.2 mph 49 % 0.00 in
17:17 92.0 °F 71.3 °F 29.77 in SW 0.8 mph 2.3 mph 51 % 0.00 in
17:22 91.8 °F 71.7 °F 29.77 in SSE 0.1 mph 1.0 mph 52 % 0.00 in
17:27 91.8 °F 72.2 °F 29.77 in SSW 4.1 mph 4.6 mph 53 % 0.00 in
17:32 91.3 °F 71.2 °F 29.77 in SSE 1.1 mph 1.2 mph 52 % 0.00 in
17:37 90.8 °F 70.7 °F 29.77 in SSE 0.7 mph 3.5 mph 52 % 0.00 in
17:43 90.5 °F 71.0 °F 29.77 in South 1.7 mph 6.9 mph 53 % 0.00 in
17:48 90.4 °F 70.9 °F 29.77 in SW 0.6 mph 2.3 mph 53 % 0.00 in
17:53 90.0 °F 70.6 °F 29.77 in SSE 1.8 mph 5.8 mph 53 % 0.00 in
17:58 89.6 °F 71.3 °F 29.77 in SE 2.4 mph 6.9 mph 55 % 0.00 in
18:03 89.2 °F 71.5 °F 29.77 in SSE 3.5 mph 10.4 mph 56 % 0.00 in
18:08 88.7 °F 72.0 °F 29.77 in SSE 2.4 mph 3.5 mph 58 % 0.00 in
18:13 88.3 °F 72.2 °F 29.77 in South 3.2 mph 6.0 mph 59 % 0.00 in
18:18 87.9 °F 71.3 °F 29.77 in SSE 2.3 mph 4.0 mph 58 % 0.00 in
18:23 87.5 °F 71.9 °F 29.77 in SE 1.3 mph 3.5 mph 60 % 0.00 in
18:29 87.4 °F 72.3 °F 29.77 in SE 3.4 mph 6.0 mph 61 % 0.00 in
18:34 87.2 °F 72.1 °F 29.77 in SSW 1.9 mph 5.8 mph 61 % 0.00 in
18:39 86.7 °F 71.2 °F 29.77 in South 1.3 mph 3.5 mph 60 % 0.00 in
18:44 86.6 °F 72.0 °F 29.77 in SSW 1.2 mph 2.3 mph 62 % 0.00 in
18:49 86.5 °F 71.9 °F 29.77 in SW 1.3 mph 3.5 mph 62 % 0.00 in
18:54 86.3 °F 71.3 °F 29.77 in South 2.5 mph 5.0 mph 61 % 0.00 in
18:59 86.1 °F 71.6 °F 29.78 in SSE 2.9 mph 5.0 mph 62 % 0.00 in
19:04 85.6 °F 71.1 °F 29.78 in SE 1.6 mph 3.5 mph 62 % 0.00 in
19:09 85.2 °F 71.6 °F 29.78 in SSW 1.7 mph 4.0 mph 64 % 0.00 in
19:14 85.0 °F 71.5 °F 29.77 in SSE 1.2 mph 4.6 mph 64 % 0.00 in
19:20 84.8 °F 71.3 °F 29.77 in SSW 3.2 mph 5.8 mph 64 % 0.00 in
19:25 84.6 °F 71.5 °F 29.78 in SSW 1.8 mph 3.5 mph 65 % 0.00 in
19:30 84.5 °F 71.9 °F 29.78 in SSE 0.8 mph 3.5 mph 66 % 0.00 in
19:35 84.3 °F 71.7 °F 29.78 in South 1.7 mph 3.5 mph 66 % 0.00 in
19:40 84.1 °F 71.5 °F 29.78 in SE 1.1 mph 5.0 mph 66 % 0.00 in
19:45 83.8 °F 71.7 °F 29.78 in SSW 1.7 mph 5.0 mph 67 % 0.00 in
19:50 83.6 °F 71.5 °F 29.78 in SSE 0.4 mph 3.5 mph 67 % 0.00 in
19:55 83.3 °F 71.6 °F 29.78 in SSE 0.8 mph 2.3 mph 68 % 0.00 in
20:00 83.1 °F 71.9 °F 29.78 in SSW 1.0 mph 1.2 mph 69 % 0.00 in
20:11 82.6 °F 71.8 °F 29.78 in South 2.5 mph 4.0 mph 70 % 0.00 in
20:16 82.5 °F 72.1 °F 29.79 in SSE 1.0 mph 3.0 mph 71 % 0.00 in
20:21 82.3 °F 72.0 °F 29.79 in South 1.0 mph 3.0 mph 71 % 0.00 in
20:26 82.0 °F 72.1 °F 29.78 in SSE 0.6 mph 3.5 mph 72 % 0.00 in
20:31 81.8 °F 71.9 °F 29.78 in South 1.0 mph 3.0 mph 72 % 0.00 in
20:36 81.7 °F 72.2 °F 29.78 in Calm   6.0 mph 73 % 0.00 in
20:41 81.4 °F 71.9 °F 29.78 in South 0.4 mph 3.5 mph 73 % 0.00 in
20:46 81.3 °F 72.2 °F 29.78 in Calm   3.0 mph 74 % 0.00 in
20:51 81.2 °F 72.1 °F 29.78 in South 1.0 mph 3.0 mph 74 % 0.00 in
20:56 81.0 °F 71.9 °F 29.78 in SSE 0.6 mph 2.3 mph 74 % 0.00 in
21:01 80.8 °F 71.7 °F 29.79 in South 0.3 mph 1.2 mph 74 % 0.00 in
21:06 80.6 °F 71.9 °F 29.79 in SSE 0.2 mph 1.2 mph 75 % 0.00 in
21:11 80.5 °F 71.8 °F 29.79 in SSE 0.7 mph 3.5 mph 75 % 0.00 in
21:16 80.4 °F 71.7 °F 29.79 in WSW 0.4 mph 2.3 mph 75 % 0.00 in
21:21 80.2 °F 71.9 °F 29.79 in SE 0.7 mph 2.3 mph 76 % 0.00 in
21:26 80.2 °F 71.9 °F 29.79 in SSW 0.4 mph 2.3 mph 76 % 0.00 in
21:31 80.1 °F 71.8 °F 29.79 in WSW 1.0 mph 3.5 mph 76 % 0.00 in
21:36 80.0 °F 71.8 °F 29.79 in SW 1.1 mph 3.5 mph 76 % 0.00 in
21:41 79.9 °F 71.7 °F 29.79 in SW 0.9 mph 2.3 mph 76 % 0.00 in
21:47 79.8 °F 71.6 °F 29.79 in SW 1.0 mph 2.3 mph 76 % 0.00 in
21:52 79.7 °F 71.8 °F 29.79 in SW 0.8 mph 2.3 mph 77 % 0.00 in
21:57 79.6 °F 71.8 °F 29.79 in SW 0.1 mph 2.3 mph 77 % 0.00 in
22:02 79.5 °F 71.7 °F 29.79 in SW 0.8 mph 2.3 mph 77 % 0.00 in
22:07 79.5 °F 71.7 °F 29.79 in Calm   1.2 mph 77 % 0.00 in
22:12 79.4 °F 71.6 °F 29.79 in SW 0.1 mph 1.2 mph 77 % 0.00 in
22:17 79.3 °F 71.5 °F 29.79 in SW 0.7 mph 3.5 mph 77 % 0.00 in
22:22 79.2 °F 71.7 °F 29.79 in SSW 0.2 mph 1.2 mph 78 % 0.00 in
22:27 79.2 °F 71.7 °F 29.79 in Calm   2.3 mph 78 % 0.00 in
22:32 79.1 °F 71.6 °F 29.79 in South 0.5 mph 2.3 mph 78 % 0.00 in
22:38 79.0 °F 71.6 °F 29.79 in WSW 0.6 mph 3.5 mph 78 % 0.00 in
22:43 79.0 °F 71.6 °F 29.79 in South 0.6 mph 3.5 mph 78 % 0.00 in
22:48 78.9 °F 71.5 °F 29.79 in SSW 0.9 mph 3.5 mph 78 % 0.00 in
22:53 78.8 °F 71.4 °F 29.79 in SSW 1.4 mph 4.6 mph 78 % 0.00 in
22:58 78.7 °F 71.3 °F 29.79 in SSW 2.0 mph 3.0 mph 78 % 0.00 in
23:03 78.6 °F 71.2 °F 29.79 in South 1.8 mph 3.5 mph 78 % 0.00 in
23:08 78.6 °F 71.2 °F 29.79 in SW 1.3 mph 3.0 mph 78 % 0.00 in
23:13 78.6 °F 71.2 °F 29.78 in SW 0.6 mph 2.3 mph 78 % 0.00 in
23:18 78.6 °F 71.2 °F 29.79 in SW 2.2 mph 4.0 mph 78 % 0.00 in
23:23 78.6 °F 71.2 °F 29.79 in South 1.1 mph 5.8 mph 78 % 0.00 in
23:29 78.6 °F 71.2 °F 29.79 in West 1.3 mph 5.8 mph 78 % 0.00 in
23:34 78.7 °F 70.9 °F 29.78 in SW 0.9 mph 2.3 mph 77 % 0.00 in
23:39 78.7 °F 70.9 °F 29.79 in SSE 1.6 mph 5.8 mph 77 % 0.00 in
23:44 78.7 °F 70.9 °F 29.79 in SSW 1.4 mph 3.5 mph 77 % 0.00 in
23:49 78.8 °F 71.0 °F 29.79 in SSW 1.9 mph 4.0 mph 77 % 0.00 in
23:54 78.9 °F 71.1 °F 29.79 in SSW 1.5 mph 4.0 mph 77 % 0.00 in
23:59 78.9 °F 71.1 °F 29.79 in SSW 0.6 mph 3.5 mph 77 % 0.00 in
Crab Meadow Weather
Compliments of Weather Underground - 3 mb

Script developed by  Jim McMurry - jmcmurry@mwt.net Adapted for the template by  Wim van der Kuil - Leuven-Template.eu

Weather Terms: Waterspout - In general, a tornado occurring over water. Specifically, it refers to a small, relatively weak rotating column of air over water beneath a towering cumulus or cumulonimbus cloud. They occasionally occur over Lake Michigan in late summer with unusually cold air aloft.